| time (UTC) | temp F | wind direction | speed MPH | gust MPH | rain 1hr in | rain 24hr in | rain mn in | humidity % | barometer mb |
| 20260507055625 | 41 | 350 | 0.0 | 0.0 | 0.00 | 0.53 | 0.00 | 87 | 1012.0 |
| 20260507054636 | 41 | 350 | 0.0 | 0.0 | 0.00 | 0.54 | 0.00 | 86 | 1012.1 |
| 20260507053643 | 41 | 359 | 0.0 | 0.0 | 0.00 | 0.54 | 0.00 | 87 | 1012.2 |
| 20260507051523 | 41 | 49 | 0.0 | 0.0 | 0.00 | 0.58 | 0.00 | 87 | 1012.3 |
| 20260507050534 | 42 | 120 | 0.0 | 0.0 | 0.00 | 0.59 | 0.00 | 88 | 1012.3 |
| 20260507045542 | 42 | 15 | 0.0 | 0.0 | 0.00 | 0.61 | 0.00 | 89 | 1012.3 |
| 20260507043404 | 42 | 3 | 0.0 | 0.0 | 0.00 | 0.63 | 0.00 | 91 | 1012.3 |
| 20260507041309 | 42 | 347 | 0.0 | 0.0 | 0.00 | 0.66 | 0.00 | 92 | 1012.2 |
| 20260507040320 | 42 | 315 | 0.0 | 0.0 | 0.00 | 0.66 | 0.00 | 92 | 1012.0 |
| 20260507035306 | 42 | 15 | 0.0 | 1.0 | 0.00 | 0.67 | 0.67 | 93 | 1012.0 |
| 20260507031920 | 42 | 180 | 0.0 | 0.0 | 0.00 | 0.72 | 0.67 | 93 | 1011.8 |
| 20260507030912 | 42 | 13 | 0.0 | 0.0 | 0.00 | 0.72 | 0.67 | 93 | 1011.6 |
| 20260507025905 | 42 | 12 | 0.0 | 0.0 | 0.00 | 0.72 | 0.67 | 93 | 1011.6 |
| 20260507024924 | 42 | 10 | 0.0 | 0.0 | 0.00 | 0.73 | 0.67 | 93 | 1011.6 |
| 20260507023857 | 42 | 28 | 0.0 | 1.0 | 0.00 | 0.73 | 0.67 | 93 | 1011.7 |
| 20260507022829 | 42 | 344 | 0.0 | 0.0 | 0.00 | 0.74 | 0.67 | 93 | 1011.7 |
| 20260507021842 | 42 | 354 | 0.0 | 0.0 | 0.00 | 0.75 | 0.67 | 93 | 1011.7 |
| 20260507020839 | 42 | 345 | 0.0 | 0.0 | 0.00 | 0.76 | 0.67 | 93 | 1011.8 |
| 20260507015807 | 42 | 333 | 0.0 | 0.0 | 0.00 | 0.76 | 0.67 | 93 | 1011.9 |
| 20260507014819 | 42 | 350 | 0.0 | 0.0 | 0.00 | 0.77 | 0.67 | 93 | 1011.8 |
| 20260507013753 | 43 | 326 | 0.0 | 2.0 | 0.00 | 0.78 | 0.67 | 93 | 1011.6 |
| 20260507012757 | 43 | 339 | 0.0 | 2.0 | 0.00 | 0.79 | 0.67 | 93 | 1011.6 |
| 20260507011744 | 43 | 82 | 0.0 | 2.0 | 0.00 | 0.79 | 0.67 | 93 | 1011.8 |
| 20260507004407 | 44 | 340 | 0.0 | 0.0 | 0.00 | 0.79 | 0.67 | 91 | 1011.0 |
| 20260507003423 | 44 | 341 | 0.0 | 2.0 | 0.00 | 0.80 | 0.67 | 90 | 1010.5 |
| 20260507002409 | 45 | 329 | 0.0 | 6.0 | 0.00 | 0.81 | 0.67 | 90 | 1010.5 |
| 20260507001343 | 46 | 266 | 0.0 | 6.0 | 0.00 | 0.82 | 0.67 | 90 | 1010.2 |
| 20260507000328 | 47 | 160 | 0.0 | 1.0 | 0.00 | 0.83 | 0.67 | 90 | 1010.2 |
| 20260506235341 | 47 | 340 | 0.0 | 1.0 | 0.00 | 0.84 | 0.67 | 89 | 1010.2 |
| 20260506234323 | 48 | 328 | 0.0 | 2.0 | 0.00 | 0.84 | 0.67 | 88 | 1010.3 |
| 20260506231105 | 49 | 329 | 0.0 | 0.0 | 0.00 | 0.88 | 0.67 | 83 | 1009.5 |
| 20260506230116 | 49 | 330 | 0.0 | 0.0 | 0.00 | 0.90 | 0.67 | 82 | 1009.3 |
| 20260506225050 | 49 | 184 | 0.0 | 0.0 | 0.00 | 0.92 | 0.67 | 81 | 1009.4 |
| 20260506222845 | 49 | 184 | 0.0 | 0.0 | 0.00 | 0.93 | 0.67 | 82 | 1009.3 |
| 20260506221857 | 49 | 184 | 0.0 | 0.0 | 0.00 | 0.93 | 0.67 | 82 | 1009.3 |
| 20260506220849 | 49 | 195 | 0.0 | 0.0 | 0.00 | 0.93 | 0.67 | 83 | 1009.3 |
| 20260506215829 | 49 | 195 | 0.0 | 0.0 | 0.00 | 0.93 | 0.67 | 82 | 1009.1 |
| 20260506214831 | 49 | 181 | 0.0 | 0.0 | 0.00 | 0.93 | 0.67 | 83 | 1008.9 |
| 20260506213821 | 49 | 181 | 0.0 | 0.0 | 0.00 | 0.93 | 0.67 | 81 | 1009.0 |
| 20260506212828 | 49 | 198 | 0.0 | 0.0 | 0.00 | 0.93 | 0.67 | 80 | 1009.3 |
| 20260506211848 | 49 | 1 | 0.0 | 0.0 | 0.00 | 0.93 | 0.67 | 80 | 1009.1 |
| 20260506210814 | 49 | 138 | 0.0 | 0.0 | 0.00 | 0.93 | 0.67 | 81 | 1009.1 |
| 20260506204628 | 49 | 153 | 0.0 | 0.0 | 0.00 | 0.93 | 0.67 | 81 | 1009.0 |
| 20260506203604 | 48 | 356 | 0.0 | 0.0 | 0.00 | 0.93 | 0.67 | 82 | 1009.0 |
| 20260506202549 | 48 | 356 | 0.0 | 0.0 | 0.00 | 0.93 | 0.67 | 80 | 1009.0 |
| 20260506201555 | 49 | 129 | 0.0 | 0.0 | 0.00 | 0.93 | 0.67 | 79 | 1009.0 |
| 20260506195438 | 49 | 330 | 0.0 | 0.0 | 0.00 | 0.93 | 0.67 | 81 | 1009.2 |
| 20260506194452 | 49 | 345 | 0.0 | 0.0 | 0.00 | 0.93 | 0.67 | 85 | 1009.0 |
| 20260506193447 | 48 | 312 | 0.0 | 0.0 | 0.00 | 0.93 | 0.67 | 85 | 1008.8 |
| 20260506192455 | 48 | 338 | 0.0 | 1.0 | 0.00 | 0.93 | 0.67 | 84 | 1008.9 |
| 20260506191439 | 48 | 349 | 0.0 | 1.0 | 0.00 | 0.93 | 0.67 | 88 | 1009.0 |
| 20260506190406 | 47 | 332 | 0.0 | 1.0 | 0.00 | 0.93 | 0.67 | 89 | 1009.1 |
| 20260506185357 | 46 | 349 | 0.0 | 1.0 | 0.00 | 0.93 | 0.67 | 91 | 1009.0 |
| 20260506184340 | 46 | 132 | 0.0 | 1.0 | 0.00 | 0.93 | 0.67 | 92 | 1009.0 |
| 20260506183328 | 45 | 37 | 0.0 | 2.0 | 0.00 | 0.93 | 0.67 | 93 | 1008.9 |
| 20260506182318 | 45 | 347 | 0.0 | 2.0 | 0.00 | 0.93 | 0.67 | 92 | 1009.0 |
| 20260506181317 | 45 | 351 | 0.0 | 2.0 | 0.00 | 0.93 | 0.67 | 92 | 1008.9 |
| 20260506180319 | 45 | 354 | 0.0 | 0.0 | 0.00 | 0.93 | 0.67 | 92 | 1008.9 |
| 20260506175317 | 45 | 333 | 0.0 | 2.0 | 0.00 | 0.93 | 0.67 | 92 | 1009.1 |
| 20260506174323 | 46 | 352 | 0.0 | 1.0 | 0.00 | 0.93 | 0.67 | 92 | 1008.8 |
| 20260506173318 | 46 | 317 | 0.0 | 0.0 | 0.00 | 0.93 | 0.67 | 92 | 1008.4 |
| 20260506172340 | 46 | 348 | 0.0 | 2.0 | 0.00 | 0.93 | 0.67 | 91 | 1008.4 |
| 20260506171328 | 47 | 346 | 0.0 | 1.0 | 0.00 | 0.93 | 0.67 | 93 | 1008.1 |
| 20260506170347 | 46 | 29 | 0.0 | 0.0 | 0.00 | 0.93 | 0.67 | 93 | 1008.0 |
| 20260506165408 | 46 | 354 | 0.0 | 0.0 | 0.00 | 0.93 | 0.67 | 93 | 1008.2 |
| 20260506164428 | 46 | 331 | 0.0 | 0.0 | 0.00 | 0.93 | 0.67 | 93 | 1008.1 |
| 20260506163452 | 46 | 336 | 0.0 | 0.0 | 0.00 | 0.93 | 0.67 | 94 | 1008.1 |
| 20260506162501 | 46 | 148 | 0.0 | 0.0 | 0.00 | 0.93 | 0.67 | 93 | 1007.9 |
| 20260506161451 | 46 | 136 | 0.0 | 0.0 | 0.00 | 0.93 | 0.67 | 94 | 1008.0 |
| 20260506160500 | 45 | 349 | 0.0 | 1.0 | 0.00 | 0.93 | 0.67 | 94 | 1008.0 |
| 20260506155445 | 45 | 348 | 0.0 | 1.0 | 0.00 | 0.93 | 0.67 | 94 | 1008.2 |
| 20260506153246 | 46 | 243 | 0.0 | 0.0 | 0.00 | 0.93 | 0.67 | 95 | 1008.0 |
| 20260506152231 | 46 | 23 | 0.0 | 0.0 | 0.00 | 0.93 | 0.67 | 95 | 1007.9 |
| 20260506151239 | 45 | 104 | 0.0 | 0.0 | 0.00 | 0.93 | 0.67 | 95 | 1007.7 |
| 20260506150207 | 45 | 335 | 0.0 | 0.0 | 0.00 | 0.93 | 0.67 | 95 | 1008.0 |
| 20260506145150 | 45 | 323 | 0.0 | 0.0 | 0.00 | 0.93 | 0.67 | 95 | 1007.8 |
| 20260506144208 | 44 | 10 | 0.0 | 0.0 | 0.00 | 0.92 | 0.66 | 94 | 1007.7 |
| 20260506143207 | 45 | 350 | 0.0 | 0.0 | 0.00 | 0.92 | 0.66 | 95 | 1007.6 |
| 20260506142135 | 44 | 304 | 0.0 | 0.0 | 0.00 | 0.92 | 0.66 | 95 | 1007.6 |
| 20260506141126 | 44 | 18 | 0.0 | 0.0 | 0.00 | 0.92 | 0.66 | 95 | 1007.4 |
| 20260506140124 | 44 | 245 | 0.0 | 0.0 | 0.00 | 0.92 | 0.65 | 95 | 1007.4 |
| 20260506133934 | 44 | 281 | 0.0 | 0.0 | 0.00 | 0.91 | 0.65 | 95 | 1007.5 |
| 20260506132956 | 43 | 87 | 0.0 | 0.0 | 0.00 | 0.91 | 0.64 | 95 | 1007.5 |
| 20260506131934 | 43 | 135 | 0.0 | 2.0 | 0.00 | 0.91 | 0.64 | 95 | 1007.4 |
| 20260506130953 | 43 | 153 | 0.0 | 0.0 | 0.00 | 0.91 | 0.64 | 95 | 1007.1 |
| 20260506130005 | 43 | 280 | 0.0 | 0.0 | 0.00 | 0.91 | 0.64 | 95 | 1007.2 |
| 20260506125010 | 43 | 224 | 0.0 | 0.0 | 0.00 | 0.90 | 0.63 | 95 | 1007.2 |
| 20260506122854 | 43 | 239 | 0.0 | 0.0 | 0.04 | 0.90 | 0.63 | 95 | 1007.4 |
| 20260506121904 | 43 | 271 | 0.0 | 0.0 | 0.05 | 0.90 | 0.63 | 95 | 1007.3 |
| 20260506115739 | 43 | 83 | 0.0 | 0.0 | 0.00 | 0.88 | 0.61 | 95 | 1007.5 |
| 20260506114740 | 43 | 355 | 0.0 | 0.0 | 0.00 | 0.86 | 0.60 | 95 | 1007.3 |
| 20260506113733 | 43 | 348 | 0.0 | 1.0 | 0.00 | 0.86 | 0.60 | 95 | 1007.2 |
| 20260506112731 | 43 | 125 | 0.0 | 1.0 | 0.00 | 0.86 | 0.60 | 95 | 1007.0 |
| 20260506110655 | 43 | 167 | 0.0 | 0.0 | 0.00 | 0.86 | 0.60 | 95 | 1007.0 |
| 20260506105639 | 43 | 153 | 0.0 | 0.0 | 0.04 | 0.85 | 0.59 | 95 | 1006.7 |
| 20260506104638 | 43 | 197 | 0.0 | 0.0 | 0.04 | 0.85 | 0.59 | 95 | 1006.9 |
| 20260506103645 | 43 | 356 | 0.0 | 0.0 | 0.06 | 0.85 | 0.57 | 95 | 1007.2 |
| 20260506102639 | 44 | 3 | 0.0 | 0.0 | 0.06 | 0.83 | 0.57 | 95 | 1007.2 |
| 20260506101702 | 43 | 13 | 0.0 | 0.0 | 0.06 | 0.82 | 0.55 | 95 | 1007.4 |
| 20260506100633 | 44 | 96 | 0.0 | 0.0 | 0.06 | 0.82 | 0.55 | 95 | 1007.5 |
| 20260506095612 | 44 | 11 | 0.0 | 0.0 | 0.08 | 0.80 | 0.54 | 95 | 1007.1 |
| 20260506094552 | 44 | 3 | 0.0 | 0.0 | 0.08 | 0.78 | 0.52 | 95 | 1006.9 |
| 20260506093533 | 44 | 93 | 0.0 | 0.0 | 0.05 | 0.76 | 0.51 | 95 | 1007.1 |
| 20260506092532 | 44 | 314 | 0.0 | 0.0 | 0.04 | 0.76 | 0.50 | 95 | 1007.1 |
| 20260506091519 | 44 | 165 | 0.0 | 4.0 | 0.00 | 0.75 | 0.49 | 95 | 1006.8 |
| 20260506090507 | 44 | 131 | 0.0 | 2.0 | 0.04 | 0.75 | 0.48 | 95 | 1006.6 |
| 20260506085510 | 44 | 270 | 0.0 | 0.0 | 0.09 | 0.75 | 0.48 | 95 | 1006.6 |
| 20260506083301 | 45 | 309 | 0.0 | 0.0 | 0.05 | 0.72 | 0.45 | 95 | 1007.1 |
| 20260506082300 | 45 | 187 | 0.0 | 2.0 | 0.08 | 0.70 | 0.43 | 95 | 1006.7 |
| 20260506081253 | 45 | 136 | 0.0 | 0.0 | 0.09 | 0.69 | 0.43 | 95 | 1007.3 |
| 20260506080219 | 45 | 338 | 0.0 | 0.0 | 0.10 | 0.67 | 0.40 | 95 | 1007.3 |
| 20260506072945 | 45 | 102 | 0.0 | 0.0 | 0.09 | 0.62 | 0.36 | 95 | 1007.1 |
| 20260506071910 | 46 | 223 | 0.0 | 2.0 | 0.15 | 0.60 | 0.34 | 95 | 1007.0 |
| 20260506070842 | 46 | 93 | 0.0 | 0.0 | 0.10 | 0.59 | 0.32 | 95 | 1007.0 |
| 20260506061731 | 47 | 4 | 0.0 | 0.0 | 0.23 | 0.44 | 0.18 | 95 | 1007.4 |
| 20260506060744 | 47 | 29 | 0.0 | 0.0 | 0.13 | 0.41 | 0.16 | 95 | 1006.9 |